Location: Gand�
(15.0971°N, 12.6564°W)
Time: 14:49:17
(UTC+00:00)

Cosmos 1758 Rocket - Pass Details

Date: 07 August 2020
Orbit: 602 x 635 km, 82.5° (Epoch: 19 September)

Event Time Altitude Azimuth Distance (km) Brightness Sun altitude
Rises 05:11:52 0° 351° (N) 2,847 7.2 -19.6°
Reaches altitude 10° 05:14:05 10° 349° (N) 1,946 6.2 -19.1°
Maximum altitude 05:18:21 67° 266° (W) 656 3.4 -18.2°
Drops below altitude 10° 05:22:38 10° 184° (S) 1,958 5.9 -17.2°
Enters shadow 05:23:22 - 183° (S) 2,254 6.2 -17.0°
